Location: Courcelles
(49.2596°N, 1.7419°E)
Time: 06:39:01
(UTC+00:00)

Cosmos 1441 Rocket - Pass Details

Date: 17 November 2025
Orbit: 425 x 448 km, 81.1° (Epoch: 06 December)

Event Time Altitude Azimuth Distance (km) Brightness Sun altitude
Rises 16:39:00 0° 347° (NNW) 2,406 6.5 -5.2°
Reaches altitude 10° 16:41:03 10° 346° (NNW) 1,537 5.5 -5.6°
Maximum altitude 16:44:23 79° 260° (W) 445 3.0 -6.1°
Drops below altitude 10° 16:47:44 10° 173° (S) 1,535 5.8 -6.6°
Sets 16:49:47 0° 172° (S) 2,403 6.8 -6.9°
